Miscellaneous Local Product
Issued by NWS Hastings, NE

Home | Current Version | Previous Version | Graphics & Text | Print | Product List | Glossary On
Versions: 1 2 3 4 5 6 7 8 9 10 11 12 13 14 15 16 17 18 19 20 21 22 23 24 25 26 27 28 29 30 31 32 33 34 35 36 37 38 39 40 41 42 43 44 45 46 47 48 49 50
755
AXUS43 KGID 281502
MISGRI

GID CWA HOURLY WEATHER ROUNDUP
NATIONAL WEATHER SERVICE HASTINGS NE
1000 AM CDT THU APR 28 2016

NOTE: "FAIR" INDICATES FEW OR NO CLOUDS BELOW 12,000 FEET WITH NO
SIGNIFICANT WEATHER AND/OR OBSTRUCTIONS TO VISIBILITY.

...SOUTH CENTRAL NEBRASKA...

CITY           SKY/WX    TMP DP  RH WIND       PRES   REMARKS
GRAND ISLAND   CLOUDY    43  40  89 NW14G24   29.95R
HASTINGS       CLOUDY    44  38  79 NW17      29.95R
KEARNEY        CLOUDY    43  36  75 N20       29.96R
ORD            CLOUDY    41  38  89 NW14      29.96R
YORK           CLOUDY    46  41  81 N15G23    29.92R
AURORA         CLOUDY    46  43  88 NW20G26   29.93R
LEXINGTON      SUNNY     44  37  75 N16G23    29.98R
HOLDREGE       PTSUNNY   43  37  78 NW10      29.98R
HEBRON         CLOUDY    46  41  84 NW13G18   29.94S

...NEBRASKA PANHANDLE...

CITY           SKY/WX    TMP DP  RH WIND       PRES   REMARKS
CHADRON        CLOUDY    36  32  85 N8        30.04R WCI  30
ALLIANCE       CLOUDY    33  29  85 N14       30.00R WCI  23
SCOTTSBLUFF    PTSUNNY   39  27  62 N10       30.01R WCI  32
SIDNEY         CLOUDY    35  28  75 N14       30.00R WCI  26

...WESTERN AND NORTH CENTRAL NEBRASKA...

CITY           SKY/WX    TMP DP  RH WIND       PRES   REMARKS
VALENTINE      CLOUDY    37  34  89 N13       29.99S WCI  29
AINSWORTH      CLOUDY    37  37  99 NW15      29.98R WCI  28
ONEILL         CLOUDY    40  39  95 N14       29.95R WCI  33
BROKEN BOW     CLOUDY    38  36  92 NW15      29.97R WCI  29
IMPERIAL       MOSUNNY   39  30  70 N12       30.01R WCI  32
NORTH PLATTE   SUNNY     42  33  70 N16       29.99R
MCCOOK         SUNNY     44  32  62 N12G17    30.00F

...EASTERN NEBRASKA...

CITY           SKY/WX    TMP DP  RH WIND       PRES   REMARKS
NORFOLK        CLOUDY    44  39  82 N15       29.90R
SO SIOUX CITY  LGT RAIN  44  41  89 N12       29.90R
TEKAMAH        CLOUDY    46  43  89 NW13      29.88R
COLUMBUS       CLOUDY    46  36  66 NW15      29.92R
ALBION         DRIZZLE   43  41  93 N10       29.93R
OMAHA EPPLEY   CLOUDY    47  43  86 NW12      29.87R
OFFUTT AFB     CLOUDY    48  44  87 NW13      29.86R
MILLARD        CLOUDY    47  43  84 NW14      29.86R
LINCOLN        CLOUDY    50  40  68 NW20      29.90R
NEBRASKA CITY  CLOUDY    48  45  88 NW14      29.88R
BEATRICE       CLOUDY    47  43  85 NW12      29.91S
FALLS CITY     CLOUDY    51  45  79 NW15      29.88R

...NORTHERN KANSAS...

CITY           SKY/WX    TMP DP  RH WIND       PRES   REMARKS
GOODLAND       CLOUDY    40  29  64 N16       30.00S WCI  31
HILL CITY      MOSUNNY   45  33  63 N13       30.02R
NORTON         SUNNY     43  32  65 NW15      29.99R
PHILLIPSBURG   SUNNY     45  36  70 NW10      30.00S
SMITH CENTER   MOSUNNY   45  37  76 NW14G20   29.98F
BELOIT         MOSUNNY   45  36  70 NW12      29.98R
HAYS           CLOUDY    46  28  49 N13G20    30.00F
RUSSELL        CLOUDY    46  34  62 NW15      29.98S
CONCORDIA      PTSUNNY   46  39  76 NW13G21   29.96R
SALINA         CLOUDY    50  38  63 NW14      29.98R
TOPEKA         CLOUDY    49  41  74 W10       29.94R



USA.gov is the U.S. government's official web portal to all federal, state and local government web resources and services.